User: anonymous   Login
Location: Unspecified
(0.0000°N, 0.0000°E)
Time: 07:52:14
(UTC+01:00)
Language:

AO-40 - Orbit

View from above orbital plane
View from above orbital plane
View from above satellite
View from above satellite

Ground track
Ground track

The orbit data is extracted from the following two-line orbital elements,

1 26609U 00072B   16343.59369756 -.00000026  00000-0  00000+0 0  9997
2 26609   6.6548 264.7344 7963671  52.1663 355.7949  1.25587854 73946
Epoch (UTC): 08 December 2016 14:14:55
Eccentricity: 0.7963671
inclination: 6.6548°
perigee height: 1011 km
apogee height: 58809 km
right ascension of ascending node: 264.7344°
argument of perigee: 52.1663°
revolutions per day: 1.25587854
mean anomaly at epoch: 355.7949°
orbit number at epoch: 7394

The dashed part of the orbit path shows where the satellite is in the earth's shadow,  

DLR